Weather History for Gilze-Rijen, Netherlands

Change the Weather History Date:

Wednesday, March 27, 2013

  Actual Average Record
Temperature  
Mean Temperature 33 °F -  
Max Temperature 42 °F 55 °F 64 °F (2012)
Min Temperature 24 °F 39 °F 24 °F (2004)
Degree Days  
Heating Degree Days 32    
Moisture  
Dew Point 16 °F    
Average Humidity 50    
Maximum Humidity 69    
Minimum Humidity 33    
Precipitation  
Precipitation 0.00 in - - ()
Sea Level Pressure  
Sea Level Pressure 29.85 in    
Wind  
Wind Speed 10 mph ()    
Max Wind Speed 16 mph    
Max Gust Speed -    
Visibility 6.2 miles    
Events      
Averages and records for this station are not official NWS values.
T = Trace of Precipitation, MM = Missing Value Source: Averaged Metar Reports

Daily Weather History Graph

Daily Weather History Graph

Search for Another Location

Airport:

Trip Planner

Search our weather history database for the weather conditions in past years. The results will help you decide how hot, cold, wet, or windy it might be!

Date:

Astronomy

Mar. 27, 2013 Rise Set
Actual Time 6:26 AM CET 7:05 PM CET
Civil Twilight 5:53 AM CET 7:39 PM CET
Nautical Twilight 5:13 AM CET 8:19 PM CET
Astronomical Twilight 4:30 AM CET 9:02 PM CET
Moon 7:39 PM CET (3/27) 6:05 AM CET (3/27)
Length of Visible Light 13h 45m
Length of Day
12h 38m
Full, 100% of the Moon is Illuminated
Mar 27
Full
Apr 3
Last Quarter
Apr 10
New
Apr 18
First Quarter
Apr 25
Full

Hourly Weather History & Observations

Time (CET) Temp. Windchill Dew Point Humidity Pressure Visibility Wind Dir Wind Speed Gust Speed Precip Events Conditions
12:25 AM 30.2 °F 20.8 °F 15.8 °F 55% 29.89 in 6.2 mi East 11.5 mph - N/A   Unknown
12:55 AM 28.4 °F 19.1 °F 15.8 °F 59% 29.89 in 6.2 mi East 10.4 mph - N/A   Partly Cloudy
1:25 AM 28.4 °F 19.1 °F 15.8 °F 59% 29.89 in 6.2 mi East 10.4 mph - N/A   Unknown
1:55 AM 28.4 °F 19.1 °F 15.8 °F 59% 29.89 in 6.2 mi East 10.4 mph - N/A   Unknown
2:25 AM 28.4 °F 20.4 °F 15.8 °F 59% 29.89 in 6.2 mi East 8.1 mph - N/A   Unknown
2:55 AM 28.4 °F 19.7 °F 17.6 °F 64% 29.89 in 6.2 mi East 9.2 mph - N/A   Partly Cloudy
3:25 AM 26.6 °F 18.2 °F 15.8 °F 64% 29.89 in 6.2 mi East 8.1 mph - N/A   Unknown
3:55 AM 26.6 °F 18.2 °F 17.6 °F 69% 29.89 in 6.2 mi ENE 8.1 mph - N/A   Unknown
4:25 AM 26.6 °F 17.5 °F 17.6 °F 69% 29.89 in 6.2 mi ENE 9.2 mph - N/A   Unknown
4:55 AM 26.6 °F 16.8 °F 17.6 °F 69% 29.86 in 6.2 mi East 10.4 mph - N/A   Unknown
5:25 AM 26.6 °F 17.5 °F 17.6 °F 69% 29.86 in 6.2 mi East 9.2 mph - N/A   Unknown
5:55 AM 24.8 °F 16.1 °F 15.8 °F 69% 29.86 in 6.2 mi ENE 8.1 mph - N/A   Unknown
6:25 AM 26.6 °F 17.5 °F 17.6 °F 69% 29.86 in 6.2 mi East 9.2 mph - N/A   Unknown
6:55 AM 26.6 °F 16.8 °F 17.6 °F 69% 29.86 in 6.2 mi East 10.4 mph - N/A   Partly Cloudy
7:25 AM 26.6 °F 16.8 °F 17.6 °F 69% 29.89 in 6.2 mi East 10.4 mph - N/A   Unknown
7:55 AM 28.4 °F 18.0 °F 17.6 °F 64% 29.89 in 6.2 mi East 12.7 mph - N/A   Partly Cloudy
8:25 AM 30.2 °F 20.2 °F 17.6 °F 60% 29.89 in 6.2 mi East 12.7 mph - N/A   Partly Cloudy
8:39 AM 30.2 °F 19.8 °F 17.6 °F 60% 29.89 in 6.2 mi East 13.8 mph - N/A   Unknown
8:55 AM 32.0 °F 22.5 °F 17.6 °F 55% 29.89 in 6.2 mi East 12.7 mph - N/A   Unknown
9:25 AM 32.0 °F 22.1 °F 17.6 °F 55% 29.89 in 6.2 mi East 13.8 mph - N/A   Partly Cloudy
9:55 AM 33.8 °F 25.3 °F 17.6 °F 52% 29.89 in 6.2 mi East 11.5 mph - N/A   Unknown
10:25 AM 35.6 °F 28.6 °F 17.6 °F 48% 29.89 in 6.2 mi East 9.2 mph - N/A   Unknown
10:55 AM 35.6 °F 27.5 °F 17.6 °F 48% 29.86 in 6.2 mi ENE 11.5 mph - N/A   Partly Cloudy
11:25 AM 35.6 °F 27.5 °F 15.8 °F 44% 29.86 in 6.2 mi East 11.5 mph - N/A   Partly Cloudy
11:55 AM 37.4 °F 29.8 °F 15.8 °F 41% 29.86 in 6.2 mi East 11.5 mph - N/A   Partly Cloudy
12:25 PM 39.2 °F 31.6 °F 15.8 °F 39% 29.86 in 6.2 mi ENE 12.7 mph - N/A   Unknown
12:55 PM 39.2 °F 31.6 °F 15.8 °F 39% 29.83 in 6.2 mi East 12.7 mph - N/A   Overcast
1:25 PM 39.2 °F 30.5 °F 14.0 °F 36% 29.83 in 6.2 mi ENE 16.1 mph - N/A   Scattered Clouds
1:55 PM 41.0 °F 33.5 °F 14.0 °F 33% 29.83 in 6.2 mi ENE 13.8 mph - N/A   Partly Cloudy
2:25 PM 41.0 °F 33.1 °F 15.8 °F 36% 29.83 in 6.2 mi East 15.0 mph - N/A   Unknown
2:55 PM 42.8 °F 36.2 °F 15.8 °F 34% 29.83 in 6.2 mi East 12.7 mph - N/A   Partly Cloudy
3:25 PM 42.8 °F 35.8 °F 15.8 °F 34% 29.80 in 6.2 mi East 13.8 mph - N/A   Partly Cloudy
3:55 PM 42.8 °F 35.8 °F 17.6 °F 36% 29.80 in 6.2 mi East 13.8 mph - N/A   Unknown
4:25 PM 41.0 °F 33.5 °F 15.8 °F 36% 29.80 in 6.2 mi East 13.8 mph - N/A   Unknown
4:48 PM 42.8 °F 35.4 °F 15.8 °F 34% 29.80 in 6.2 mi ENE 15.0 mph - N/A   Unknown
4:55 PM 41.0 °F 33.5 °F 15.8 °F 36% 29.80 in 6.2 mi ENE 13.8 mph - N/A   Unknown
5:25 PM 41.0 °F 33.5 °F 15.8 °F 36% 29.80 in 6.2 mi East 13.8 mph - N/A   Unknown
5:55 PM 41.0 °F 33.5 °F 15.8 °F 36% 29.80 in 6.2 mi East 13.8 mph - N/A   Unknown
6:04 PM 41.0 °F 33.9 °F 14.0 °F 33% 29.80 in 6.2 mi East 12.7 mph - N/A   Unknown
6:25 PM 39.2 °F 32.0 °F 14.0 °F 36% 29.80 in 6.2 mi East 11.5 mph - N/A   Unknown
6:55 PM 39.2 °F 32.5 °F 14.0 °F 36% 29.80 in 6.2 mi East 10.4 mph - N/A   Unknown
7:25 PM 35.6 °F 29.2 °F 14.0 °F 41% 29.83 in 6.2 mi East 8.1 mph - N/A   Unknown
7:55 PM 33.8 °F 27.7 °F 14.0 °F 44% 29.83 in 6.2 mi East 6.9 mph - N/A   Unknown
8:25 PM 35.6 °F 29.9 °F 15.8 °F 44% 29.83 in 6.2 mi ENE 6.9 mph - N/A   Unknown
8:55 PM 33.8 °F 27.7 °F 15.8 °F 48% 29.83 in 6.2 mi ENE 6.9 mph - N/A   Unknown
9:25 PM 32.0 °F 25.6 °F 15.8 °F 51% 29.83 in 6.2 mi NE 6.9 mph - N/A   Partly Cloudy
9:55 PM 33.8 °F 26.4 °F 17.6 °F 52% 29.83 in 6.2 mi ENE 9.2 mph - N/A   Unknown
10:25 PM 33.8 °F 26.4 °F 17.6 °F 52% 29.83 in 6.2 mi ENE 9.2 mph - N/A   Unknown
10:55 PM 33.8 °F 26.4 °F 17.6 °F 52% 29.83 in 6.2 mi ENE 9.2 mph - N/A   Unknown
11:07 PM 33.8 °F 25.8 °F 17.6 °F 52% 29.83 in 6.2 mi ENE 10.4 mph - N/A   Unknown